Weather History for KAFK - March, 2014

Change the Weather History Date:

Friday, March 28, 2014

  Actual Average (KSDA) Record (KSDA)
Temperature  
Mean Temperature 37 °F -  
Max Temperature 48 °F 62 °F 86 °F (1986)
Min Temperature 26 °F 36 °F 5 °F (1970)
Degree Days  
Heating Degree Days 28    
Moisture  
Dew Point 29 °F    
Average Humidity 74    
Maximum Humidity 92    
Minimum Humidity 48    
Precipitation  
Precipitation 0.00 in - - ()
Sea Level Pressure  
Sea Level Pressure 30.05 in    
Wind  
Wind Speed 9 mph (NNE)    
Max Wind Speed 14 mph    
Max Gust Speed 21 mph    
Visibility 10 miles    
Events      
Averages and records for this station are not official NWS values.
T = Trace of Precipitation, MM = Missing Value Source: NWS Daily Summary

Daily Weather History Graph

Daily Weather History Graph

Search for Another Location

Airport or City:

Trip Planner

Search our weather history database for the weather conditions in past years. The results will help you decide how hot, cold, wet, or windy it might be!

Date:

Astronomy

Mar. 28, 2014 Rise Set
Actual Time 7:13 AM CDT 7:44 PM CDT
Civil Twilight 6:46 AM CDT 8:11 PM CDT
Nautical Twilight 6:13 AM CDT 8:43 PM CDT
Astronomical Twilight 5:40 AM CDT 9:17 PM CDT
Moon 5:45 AM CDT (3/28) 5:41 PM CDT (3/28)
Length of Visible Light 13h 25m
Length of Day
12h 30m
Waning Crescent, 6% of the Moon is Illuminated
Mar 28
Waning Crescent
Mar 30
New
Apr 7
First Quarter
Apr 15
Full
Apr 22
Last Quarter

Hourly Weather History & Observations

Time (CDT) Temp. Windchill Dew Point Humidity Pressure Visibility Wind Dir Wind Speed Gust Speed Precip Events Conditions
12:15 AM 35.6 °F 26.6 °F 29.1 °F 77% 29.85 in 10.0 mi NNW 13.8 mph 20.7 mph N/A   Overcast
12:35 AM 35.2 °F 26.6 °F 28.8 °F 77% 29.86 in 10.0 mi NNW 12.7 mph - N/A   Overcast
12:55 AM 34.7 °F 26.9 °F 28.8 °F 79% 29.86 in 10.0 mi North 10.4 mph - N/A   Overcast
1:15 AM 34.3 °F 26.5 °F 28.8 °F 80% 29.86 in 10.0 mi NNW 10.4 mph - N/A   Overcast
1:35 AM 34.0 °F 26.0 °F 28.8 °F 81% 29.88 in 10.0 mi NW 10.4 mph - N/A   Overcast
1:55 AM 33.8 °F 25.8 °F 28.6 °F 81% 29.89 in 10.0 mi WNW 10.4 mph - N/A   Overcast
2:15 AM 32.5 °F 26.2 °F 28.6 °F 85% 29.89 in 10.0 mi NW 6.9 mph - N/A   Overcast
2:35 AM 33.1 °F 24.9 °F 28.8 °F 84% 29.89 in 10.0 mi North 10.4 mph - N/A   Overcast
2:55 AM 33.1 °F 25.5 °F 28.8 °F 84% 29.90 in 10.0 mi NNW 9.2 mph - N/A   Overcast
3:15 AM 33.4 °F 25.4 °F 28.9 °F 84% 29.89 in 10.0 mi NNW 10.4 mph - N/A   Overcast
3:35 AM 33.4 °F 25.4 °F 29.1 °F 84% 29.90 in 10.0 mi North 10.4 mph - N/A   Overcast
3:55 AM 33.4 °F 25.4 °F 28.9 °F 84% 29.91 in 10.0 mi NNW 10.4 mph - N/A   Overcast
4:15 AM 33.4 °F 25.4 °F 28.9 °F 84% 29.91 in 10.0 mi North 10.4 mph - N/A   Overcast
4:35 AM 33.1 °F 24.9 °F 29.1 °F 85% 29.93 in 10.0 mi North 10.4 mph - N/A   Overcast
4:55 AM 33.3 °F 26.4 °F 29.1 °F 85% 29.94 in 10.0 mi North 8.1 mph - N/A   Overcast
5:15 AM 32.2 °F 22.7 °F 28.2 °F 85% 29.94 in 10.0 mi NNW 12.7 mph - N/A   Overcast
5:35 AM 30.4 °F 22.9 °F 26.4 °F 85% 29.96 in 10.0 mi NNW 8.1 mph - N/A   Scattered Clouds
5:55 AM 29.1 °F 19.4 °F 25.7 °F 87% 29.96 in 10.0 mi North 11.5 mph - N/A   Clear
6:15 AM 28.4 °F 19.1 °F 25.5 °F 89% 29.98 in 10.0 mi NNW 10.4 mph - N/A   Clear
6:35 AM 27.5 °F 19.3 °F 24.8 °F 90% 29.99 in 10.0 mi North 8.1 mph - N/A   Clear
7:15 AM 26.2 °F 22.1 °F 23.9 °F 91% 30.01 in 10.0 mi North 3.5 mph - N/A   Clear
7:35 AM 26.1 °F 18.4 °F 24.1 °F 92% 30.01 in 7.0 mi North 6.9 mph - N/A   Clear
7:55 AM 26.6 °F 19.1 °F 24.4 °F 92% 30.01 in 7.0 mi North 6.9 mph - N/A   Clear
8:15 AM 27.0 °F 19.5 °F 24.8 °F 92% 30.03 in 7.0 mi North 6.9 mph - N/A   Clear
8:35 AM 28.0 °F 20.8 °F 25.7 °F 91% 30.02 in 7.0 mi North 6.9 mph - N/A   Scattered Clouds
8:55 AM 29.7 °F 24.7 °F 27.0 °F 90% 30.04 in 7.0 mi NNE 4.6 mph - N/A   Mostly Cloudy
9:15 AM 30.7 °F 22.0 °F 27.3 °F 87% 30.04 in 7.0 mi NNE 10.4 mph - N/A   Overcast
9:35 AM 31.1 °F 25.4 °F 27.5 °F 87% 30.04 in 7.0 mi NNE 5.8 mph - N/A   Overcast
9:55 AM 31.6 °F 24.4 °F 27.7 °F 85% 30.04 in 7.0 mi NE 8.1 mph - N/A   Overcast
10:15 AM 32.0 °F 25.6 °F 28.0 °F 85% 30.05 in 10.0 mi NE 6.9 mph - N/A   Overcast
10:35 AM 32.7 °F 26.4 °F 28.0 °F 83% 30.06 in 10.0 mi ENE 6.9 mph - N/A   Overcast
10:55 AM 33.8 °F 30.8 °F 28.4 °F 81% 30.07 in 10.0 mi NNE 3.5 mph - N/A   Overcast
11:15 AM 35.1 °F - 28.4 °F 77% 30.08 in 10.0 mi Calm Calm - N/A   Overcast
11:35 AM 34.7 °F - 28.2 °F 77% 30.10 in 10.0 mi Calm Calm - N/A   Mostly Cloudy
11:55 AM 36.3 °F - 28.2 °F 72% 30.10 in 10.0 mi Calm Calm - N/A   Mostly Cloudy
12:15 PM 37.6 °F - 28.9 °F 71% 30.10 in 10.0 mi Calm Calm - N/A   Scattered Clouds
12:35 PM 39.4 °F - 28.9 °F 66% 30.09 in 10.0 mi Calm Calm - N/A   Clear
12:55 PM 40.5 °F 36.5 °F 29.3 °F 64% 30.09 in 10.0 mi ENE 5.8 mph - N/A   Clear
1:15 PM 41.0 °F 38.0 °F 29.1 °F 63% 30.10 in 10.0 mi North 4.6 mph - N/A   Mostly Cloudy
1:35 PM 41.2 °F - 29.1 °F 62% 30.11 in 10.0 mi Calm Calm - N/A   Overcast
1:55 PM 43.7 °F - 29.7 °F 58% 30.09 in 10.0 mi Calm Calm - N/A   Overcast
2:15 PM 44.8 °F 43.3 °F 29.7 °F 55% 30.08 in 10.0 mi ESE 3.5 mph - N/A   Mostly Cloudy
2:35 PM 44.8 °F 41.0 °F 29.3 °F 55% 30.06 in 10.0 mi East 6.9 mph - N/A   Mostly Cloudy
2:55 PM 45.0 °F 42.6 °F 29.5 °F 55% 30.07 in 10.0 mi NE 4.6 mph - N/A   Mostly Cloudy
3:15 PM 45.3 °F 41.6 °F 29.7 °F 54% 30.08 in 10.0 mi ENE 6.9 mph - N/A   Mostly Cloudy
3:35 PM 45.9 °F - 29.5 °F 53% 30.07 in 10.0 mi Calm Calm - N/A   Scattered Clouds
3:55 PM 45.7 °F 44.4 °F 29.5 °F 53% 30.07 in 10.0 mi North 3.5 mph - N/A   Mostly Cloudy
4:15 PM 48.2 °F - 30.0 °F 49% 30.07 in 10.0 mi ENE 5.8 mph - N/A   Overcast
4:35 PM 48.2 °F - 29.3 °F 48% 30.06 in 10.0 mi NE 5.8 mph - N/A   Mostly Cloudy
4:55 PM 46.9 °F - 29.3 °F 50% 30.07 in 10.0 mi NNE 11.5 mph - N/A   Scattered Clouds
5:15 PM 47.8 °F - 30.0 °F 50% 30.07 in 10.0 mi North 12.7 mph - N/A   Scattered Clouds
5:35 PM 45.7 °F 40.2 °F 30.0 °F 54% 30.07 in 10.0 mi North 11.5 mph - N/A   Scattered Clouds
5:55 PM 45.9 °F 40.8 °F 30.2 °F 54% 30.08 in 10.0 mi NNE 10.4 mph - N/A   Clear
6:15 PM 45.3 °F 40.1 °F 29.8 °F 55% 30.08 in 10.0 mi NNE 10.4 mph - N/A   Clear
6:35 PM 44.6 °F 39.7 °F 29.5 °F 55% 30.07 in 10.0 mi NE 9.2 mph - N/A   Clear
6:55 PM 43.7 °F 38.1 °F 29.3 °F 57% 30.08 in 10.0 mi NNE 10.4 mph - N/A   Clear
7:15 PM 42.3 °F 35.9 °F 29.3 °F 60% 30.10 in 10.0 mi NNE 11.5 mph - N/A   Clear
7:35 PM 40.5 °F 33.6 °F 29.7 °F 65% 30.10 in 10.0 mi NNE 11.5 mph - N/A   Clear
7:55 PM 39.0 °F 31.4 °F 29.8 °F 70% 30.11 in 10.0 mi NE 12.7 mph - N/A   Clear
8:15 PM 37.4 °F 29.8 °F 29.3 °F 73% 30.13 in 10.0 mi NNE 11.5 mph - N/A   Scattered Clouds
8:35 PM 37.0 °F 29.3 °F 29.3 °F 74% 30.15 in 10.0 mi NNE 11.5 mph - N/A   Scattered Clouds
8:55 PM 37.4 °F 29.3 °F 29.5 °F 73% 30.17 in 10.0 mi NNE 12.7 mph - N/A   Mostly Cloudy
9:15 PM 37.0 °F 28.5 °F 29.8 °F 75% 30.17 in 10.0 mi NNE 13.8 mph - N/A   Overcast
9:35 PM 36.9 °F 28.7 °F 30.0 °F 76% 30.19 in 10.0 mi NNE 12.7 mph - N/A   Overcast
9:55 PM 36.7 °F 28.9 °F 30.0 °F 77% 30.20 in 10.0 mi NNE 11.5 mph - N/A   Overcast
10:15 PM 36.5 °F 28.2 °F 30.0 °F 77% 30.20 in 10.0 mi NNE 12.7 mph - N/A   Overcast
10:35 PM 36.1 °F 28.7 °F 30.0 °F 78% 30.22 in 10.0 mi NNE 10.4 mph - N/A   Overcast
10:55 PM 36.0 °F 28.5 °F 29.8 °F 78% 30.22 in 10.0 mi NNE 10.4 mph - N/A   Overcast
11:15 PM 35.8 °F 27.3 °F 29.8 °F 79% 30.23 in 10.0 mi NNE 12.7 mph - N/A   Overcast
11:35 PM 35.6 °F 28.0 °F 29.7 °F 79% 30.23 in 10.0 mi NNE 10.4 mph - N/A   Overcast
11:55 PM 35.6 °F 28.6 °F 29.3 °F 78% 30.23 in 10.0 mi NNE 9.2 mph - N/A   Overcast